Theta_e
314 315 315 314 313 314 313 313 314 314 315 317 318 318 317 317 317 316 316 315 314 311 310 308 307 307 309 309 308 308 308 308 309 310 308 307 307 307 308 308 308 308 309 308 309 309 309 309 309 309 309 309 309 309 309 309 309 309 309 309 309 309 309 310 310 310 311 312 313 314 316 320 323 325
314 314 314 314 313 314 314 314 314 313 313 314 315 316 316 316 317 316 316 316 314 311 309 308 306 306 306 307 307 307 306 306 308 309 307 306 306 306 306 307 307 307 307 308 308 308 308 308 308 308 308 309 308 309 309 309 309 308 309 309 309 309 309 309 309 310 310 311 312 313 314 315 320 324
314 314 314 314 313 314 314 314 314 314 313 312 312 312 314 315 316 316 316 316 314 311 309 307 306 305 306 306 306 305 303 302 305 307 307 304 304 305 305 304 305 306 306 307 307 307 307 307 308 308 308 308 308 308 308 308 308 309 309 309 309 309 309 309 310 310 310 311 311 313 314 314 317 321
315 314 314 313 313 314 314 313 313 312 312 313 312 311 313 314 315 315 315 315 313 311 309 307 306 306 306 305 306 306 304 303 303 306 306 303 303 306 306 303 301 302 303 303 304 305 306 306 307 307 307 307 307 308 308 308 308 308 308 308 308 309 309 309 309 309 309 310 310 311 313 314 315 318
315 314 313 313 313 314 313 312 312 312 312 312 311 311 312 313 313 314 314 313 311 309 308 307 307 307 307 306 306 307 307 306 305 305 306 304 305 307 307 305 302 300 300 300 300 301 301 302 303 303 304 304 305 305 306 306 307 307 307 308 307 308 308 308 308 308 308 308 308 309 310 312 314 316
316 315 314 313 313 312 312 312 312 311 311 311 310 310 310 311 312 312 312 311 310 309 309 309 308 308 308 307 307 307 307 307 306 306 306 305 305 305 306 307 305 301 300 300 299 299 299 299 299 299 299 300 300 301 301 302 302 303 304 305 305 306 307 307 307 307 307 307 307 307 307 309 311 314
318 317 316 315 314 314 313 313 312 312 311 311 310 309 309 310 310 311 312 312 312 312 311 311 310 310 310 308 308 307 307 308 307 307 307 306 306 306 305 306 305 303 302 301 299 299 299 298 298 298 298 298 298 298 298 298 299 299 299 300 301 302 303 304 305 305 306 306 306 306 306 307 308 310
319 319 318 317 316 316 316 315 313 312 312 311 310 310 311 312 313 314 314 314 314 314 313 312 311 310 310 309 308 308 308 308 307 307 307 307 307 307 307 306 305 304 304 303 301 300 299 299 299 298 298 298 298 298 298 298 298 297 298 298 298 298 299 300 301 302 303 304 305 305 305 306 306 307
320 320 319 319 318 317 317 316 315 314 313 312 311 311 311 313 314 314 315 315 315 315 314 313 311 311 310 309 309 308 308 309 309 308 308 307 307 307 308 307 306 305 304 304 304 302 301 301 300 299 298 298 297 297 297 297 297 297 297 297 297 297 297 298 298 299 300 302 303 304 305 305 306 306
321 321 320 320 319 319 318 318 317 316 315 313 312 311 311 312 314 315 315 315 315 316 315 314 312 312 311 311 310 308 308 309 310 309 309 308 308 308 308 308 307 305 305 305 304 303 302 301 300 299 298 298 298 297 296 296 296 296 296 296 296 296 297 297 297 297 298 299 300 302 303 304 305 306
322 322 321 321 320 320 320 319 318 318 316 315 314 313 312 311 311 314 315 315 315 316 315 315 314 313 312 312 311 309 308 309 309 309 309 309 309 309 308 308 307 306 306 305 304 302 301 301 300 299 299 299 299 298 296 296 296 296 296 296 296 296 296 296 297 297 297 297 298 299 300 301 302 303
321 321 321 321 321 321 320 319 319 318 317 316 315 314 313 311 311 312 313 313 314 315 315 315 314 313 313 312 311 310 309 310 310 309 308 308 309 308 308 307 307 307 306 305 304 302 301 302 301 301 300 301 300 299 297 297 297 297 296 295 295 295 296 296 296 296 297 297 297 298 298 299 299 300
320 320 319 320 321 320 320 319 318 318 317 317 316 315 314 312 311 311 312 312 313 314 314 314 314 313 313 312 312 311 311 310 310 308 308 308 308 307 307 307 307 307 305 304 303 302 301 302 302 302 302 302 301 300 299 300 300 299 296 295 295 295 295 296 296 297 297 298 298 298 298 299 299 299
321 320 320 320 319 319 318 318 318 318 317 315 315 315 314 312 311 310 311 311 312 313 314 314 313 313 313 312 311 310 310 309 308 308 307 307 307 307 307 307 307 306 305 304 303 302 301 301 302 302 301 301 301 301 301 301 301 298 295 294 295 295 295 296 296 297 298 298 298 298 298 299 299 300
321 321 320 320 319 318 318 318 318 317 316 315 315 314 313 311 310 310 311 311 311 312 312 312 312 312 311 311 310 309 310 309 308 307 307 306 307 307 307 307 306 305 304 303 302 301 300 301 301 301 301 301 301 302 302 300 298 296 294 294 294 294 295 296 297 297 298 298 298 298 298 298 298 299
319 319 318 318 319 319 317 317 318 317 316 316 315 315 314 312 311 310 310 310 311 311 311 311 311 310 310 309 309 309 309 308 307 306 306 306 306 306 306 306 306 305 303 301 301 300 300 300 300 300 301 301 301 301 301 299 298 296 295 294 293 294 294 295 296 297 297 297 297 297 298 298 298 298
317 317 316 316 317 317 316 316 317 317 317 315 315 315 314 312 310 308 306 306 307 308 309 310 310 309 308 308 308 307 305 304 305 305 305 305 305 304 305 304 304 303 301 300 300 300 300 300 300 300 301 301 300 301 300 299 298 297 296 295 294 293 294 294 295 296 297 297 297 297 297 297 297 297
318 317 317 316 315 316 316 316 316 316 316 314 313 312 311 309 308 306 304 303 304 305 307 308 309 307 306 305 305 304 302 301 302 302 302 303 303 302 302 302 301 301 300 300 300 300 300 300 299 300 300 300 300 300 300 299 298 297 296 295 294 293 294 294 294 295 296 296 296 296 296 296 296 296
317 317 317 316 316 316 315 314 314 315 315 313 311 310 308 307 306 304 303 303 304 304 305 306 306 305 303 302 302 301 300 299 299 299 300 300 300 300 301 301 301 300 300 300 300 300 300 299 299 299 300 300 300 300 299 298 298 297 296 296 294 294 294 295 295 295 296 296 296 296 296 296 296 295
316 317 316 315 315 314 313 312 312 312 313 312 311 310 308 307 305 303 302 303 303 303 303 304 304 303 302 301 300 299 298 297 297 298 299 299 300 300 301 301 300 300 300 300 300 300 299 299 299 299 299 299 299 299 299 298 298 297 297 296 295 295 295 295 296 295 296 295 295 295 295 295 295 295
313 314 313 313 314 311 309 309 309 309 311 311 311 310 309 307 305 303 302 302 303 303 303 302 301 300 300 299 297 297 296 295 295 296 298 299 300 300 300 300 299 299 299 299 299 299 299 299 299 299 299 298 298 298 298 298 298 298 297 296 296 295 295 295 295 295 295 295 295 295 295 295 295 295
310 311 310 310 310 309 307 307 307 307 309 310 309 309 308 308 307 304 302 302 302 301 300 299 298 298 297 296 296 295 295 294 293 294 296 298 298 298 298 299 299 299 299 298 298 298 298 298 298 298 298 298 298 298 298 298 298 297 297 297 296 295 295 295 295 294 294 294 294 294 294 294 294 294
308 308 308 308 307 307 307 306 306 306 307 308 308 308 308 308 307 304 301 300 299 298 298 297 298 298 297 297 296 296 296 294 293 294 295 296 297 297 298 298 298 298 298 298 298 297 297 297 297 297 297 298 298 298 298 297 297 297 297 297 296 296 295 295 295 294 295 295 295 295 295 294 294 295
307 305 304 305 305 305 305 304 304 304 305 306 306 306 306 306 304 300 299 298 297 297 297 298 297 298 298 298 298 298 297 296 295 295 296 296 297 297 297 297 297 297 298 297 297 296 296 297 296 296 296 297 297 297 297 297 297 297 297 296 296 296 296 295 295 295 296 296 296 296 296 295 295 295
307 305 302 301 302 302 302 302 302 302 303 303 303 302 302 301 299 298 298 297 296 296 297 297 297 298 298 298 298 298 297 297 297 296 296 296 296 296 296 296 296 296 297 296 296 295 295 295 295 295 295 296 296 296 296 296 296 296 296 296 296 296 295 295 296 296 296 296 296 296 296 296 296 295
307 305 302 301 300 300 301 301 301 301 301 300 300 299 298 297 296 295 297 297 297 297 297 297 297 297 297 297 297 297 297 297 296 296 296 295 295 295 295 295 295 295 296 295 295 294 294 294 295 294 294 295 295 295 295 295 295 295 295 295 295 295 295 295 295 296 296 296 296 296 296 296 295 295
306 304 301 301 300 299 299 299 299 299 298 298 297 297 295 294 293 294 296 297 296 297 297 296 297 297 297 297 297 297 296 296 295 295 295 295 295 294 294 294 294 294 294 294 293 293 293 293 293 293 294 294 294 294 294 294 294 294 294 294 295 295 295 295 295 295 295 295 296 296 296 296 296 296
305 303 301 300 299 298 298 297 297 297 296 296 295 294 293 293 293 294 296 296 296 296 296 296 297 297 296 296 296 296 296 295 294 294 294 294 293 293 293 293 292 292 292 292 292 292 292 292 292 292 293 293 293 293 293 293 294 294 294 294 294 294 294 294 294 294 295 295 295 295 296 296 296 296
304 302 300 299 297 296 296 296 296 295 294 293 293 292 292 293 294 295 295 296 296 296 296 296 296 296 296 295 295 295 294 293 293 293 293 293 292 292 292 291 291 291 291 291 291 291 291 291 291 291 291 292 292 292 292 292 293 293 293 293 293 293 293 293 293 294 294 294 294 295 295 296 296 296
302 300 298 297 295 295 295 296 295 293 292 292 292 292 293 294 295 295 295 295 295 295 295 295 295 295 295 294 294 293 293 292 292 292 292 292 291 291 291 291 291 291 291 291 290 290 290 290 291 291 291 291 291 291 292 292 292 292 292 292 292 292 292 293 293 293 293 294 294 294 294 295 295 296
298 297 296 295 294 294 294 294 294 293 293 293 293 294 294 295 294 294 294 294 294 295 295 294 294 293 293 293 292 292 292 292 292 292 291 291 291 291 291 291 291 291 291 291 291 291 291 290 291 290 290 291 291 291 291 291 291 292 292 292 292 292 292 292 293 293 293 293 293 293 294 294 294 295
296 295 295 294 295 295 295 295 295 295 294 294 294 294 295 295 294 294 293 294 294 294 294 293 293 292 292 292 292 292 291 292 292 291 291 291 291 291 291 290 291 291 291 291 291 291 291 291 291 291 290 290 291 291 291 291 291 291 292 292 292 292 292 292 292 292 293 293 293 293 293 294 294 294
296 295 295 296 296 296 295 295 295 295 295 294 294 294 294 294 294 294 294 294 294 293 292 292 291 291 291 291 291 291 291 291 291 291 291 291 291 291 290 290 291 291 291 291 291 291 291 291 291 291 291 290 290 290 290 291 291 291 292 292 292 292 292 292 292 292 292 293 293 293 293 293 294 294
296 296 297 297 296 296 295 295 295 294 294 294 294 293 293 293 293 293 293 294 293 292 291 291 291 291 291 291 291 291 291 291 291 290 290 290 291 291 291 291 291 291 291 291 291 291 291 291 291 291 291 291 291 291 290 290 291 291 291 292 292 292 292 292 292 292 292 293 293 293 293 293 293 294
297 297 297 296 295 295 295 294 294 294 294 293 293 293 293 293 292 292 293 293 292 291 291 291 291 291 291 290 290 290 290 290 290 290 290 290 291 291 291 291 291 291 291 291 291 291 291 291 291 291 291 291 291 291 291 291 291 291 291 291 292 292 292 292 292 292 293 293 293 293 293 293 293 293
297 297 296 296 295 295 294 294 293 294 293 293 293 293 293 292 292 292 293 292 291 291 291 291 291 291 290 290 290 290 290 290 290 290 290 290 290 291 290 291 291 291 291 291 291 291 291 291 291 291 291 291 291 291 291 291 291 291 291 291 291 291 292 292 292 292 292 293 293 293 293 293 293 293
296 296 296 295 295 294 294 293 293 293 293 292 292 292 292 292 292 293 293 292 292 291 291 291 291 291 290 290 290 290 290 290 290 290 290 290 290 290 290 291 291 291 291 291 291 291 291 291 291 291 291 291 290 291 292 292 291 291 291 290 291 291 291 291 292 292 292 292 292 292 292 292 292 292
296 295 295 295 294 294 294 293 293 293 292 292 292 291 291 292 292 293 293 292 292 291 291 291 291 291 290 290 290 290 290 290 290 290 290 290 290 290 290 291 291 291 291 291 291 291 291 291 291 290 291 291 290 291 291 292 291 291 291 290 290 290 291 291 291 291 291 292 292 292 292 292 291 291
295 295 295 294 294 294 293 293 293 293 292 291 291 291 290 291 291 292 292 292 292 291 291 291 291 290 290 290 290 290 290 290 290 290 290 290 290 290 290 290 290 290 291 290 290 290 291 291 291 291 291 291 291 291 291 291 291 291 290 290 290 290 290 290 291 291 291 291 292 292 292 292 291 290
294 294 294 294 294 294 293 293 293 292 292 291 291 290 289 290 290 291 291 291 291 291 291 291 291 290 290 290 290 290 290 290 289 289 289 290 290 290 290 290 290 290 290 290 290 290 291 291 291 291 291 291 290 290 290 290 290 290 290 290 290 290 290 290 291 291 291 291 292 292 292 292 292 291
294 294 294 294 294 294 293 293 292 292 291 291 290 289 288 289 289 290 290 290 290 290 291 291 291 290 290 290 290 290 290 290 289 289 289 289 289 289 289 290 290 290 290 290 290 291 291 291 291 291 290 290 290 290 290 290 290 290 290 291 291 290 290 290 290 291 291 291 291 292 292 292 292 291
293 293 293 293 293 293 293 293 292 291 291 290 290 288 288 288 289 290 290 290 291 291 291 291 290 290 290 290 290 290 290 289 289 289 289 289 289 289 289 290 290 290 290 290 290 290 290 290 290 290 290 290 290 290 290 291 291 291 291 291 291 291 291 290 290 290 290 290 290 291 291 291 292 292
293 293 293 293 293 293 292 292 291 291 290 290 289 288 288 288 289 289 291 291 291 291 291 290 290 290 290 290 289 289 289 289 289 289 289 289 289 289 289 290 290 290 290 290 290 290 290 290 291 291 291 290 290 290 290 291 291 291 291 291 291 291 291 290 290 290 290 290 289 290 290 290 291 291
293 293 293 292 292 292 291 291 291 290 290 289 289 289 288 288 288 289 290 291 290 290 290 290 290 289 289 289 289 288 289 289 289 288 289 289 289 289 289 289 290 290 290 290 290 290 291 291 291 291 291 291 291 291 291 291 291 291 291 291 291 291 290 290 289 289 289 289 290 290 290 290 290 290
292 292 292 292 292 291 291 291 290 290 289 289 289 288 287 287 287 288 289 289 289 289 289 289 289 289 288 288 288 288 288 288 288 288 289 289 289 289 289 290 290 290 290 290 290 291 291 292 292 292 292 292 292 292 291 291 291 291 291 291 291 290 290 289 288 288 287 287 288 289 290 290 290 290
Wind_Speed
7 7 7 7 7 7 7 7 7 6 4 1 1 1 1 1 1 3 3 3 5 5 5 7 7 7 7 7 7 7 7 8 8 7 6 6 5 5 3 2 2 1 1 2 3 3 4 4 4 5 5 6 6 6 6 7 8 8 9 10 11 12 12 12 13 14 15 15 16 17 17 16 16 19
6 7 7 7 7 7 6 7 6 6 4 2 0 2 2 2 2 1 3 3 4 5 5 6 6 6 6 6 6 6 5 6 7 6 5 5 4 3 3 2 2 2 2 3 3 4 4 5 5 6 6 6 7 7 8 9 9 9 10 10 11 12 13 13 14 14 14 14 14 15 16 17 16 16
6 6 6 6 6 6 5 5 5 5 5 3 2 1 2 1 2 0 3 3 3 4 5 5 5 5 5 5 5 5 4 4 6 5 3 2 3 4 4 3 3 4 4 4 5 5 6 6 7 7 7 8 8 9 9 10 10 10 11 11 11 12 12 13 13 14 14 14 13 13 14 16 17 17
4 4 5 5 5 4 4 5 5 5 5 4 4 3 2 2 1 0 2 4 5 4 4 5 5 5 4 4 4 4 3 4 5 4 2 2 4 3 4 6 5 5 7 7 7 8 8 9 9 9 10 10 10 11 11 11 12 12 12 12 12 12 12 12 13 14 14 14 14 13 13 14 16 17
3 3 3 4 3 3 3 3 3 4 4 4 4 4 4 4 3 2 3 6 7 6 4 4 4 3 2 2 3 3 2 2 2 2 2 2 3 1 3 6 7 7 7 8 9 9 10 11 11 12 12 13 13 13 14 14 14 15 15 15 15 14 14 14 14 14 15 15 15 15 14 14 14 16
2 2 2 2 2 2 2 1 1 2 2 2 3 4 4 5 4 3 4 6 7 6 5 4 4 3 2 1 2 2 2 1 0 1 1 1 2 2 3 4 7 9 9 8 9 9 10 11 12 13 13 14 15 15 16 16 17 17 18 18 18 18 17 17 17 17 17 17 17 17 17 16 15 15
2 1 1 1 1 1 1 0 0 1 1 1 2 3 3 4 5 4 3 4 5 6 6 5 5 4 2 1 2 2 2 1 0 1 0 1 1 2 4 3 5 9 10 8 8 9 10 11 11 12 14 15 16 16 17 17 18 18 19 19 20 20 21 21 20 20 19 19 19 19 19 19 18 17
2 2 2 2 2 2 2 2 2 1 2 2 2 3 3 4 5 4 3 2 2 4 5 4 4 4 3 2 2 1 1 1 1 1 1 2 2 3 5 4 6 10 12 11 10 11 11 11 11 12 14 15 16 17 18 18 19 19 20 20 20 21 21 22 22 22 21 21 21 20 20 20 20 19
3 3 4 4 4 4 4 4 3 2 3 3 2 3 4 5 5 4 3 2 2 3 4 5 4 4 4 3 2 1 1 1 2 2 2 3 3 3 5 5 6 10 13 13 14 15 15 15 15 15 15 14 15 15 16 17 18 19 20 20 21 21 22 22 22 22 22 22 22 21 21 21 21 21
4 5 6 6 5 6 6 5 5 4 4 5 5 5 5 4 5 4 4 3 3 3 3 4 4 4 4 3 2 1 2 3 3 4 5 5 4 4 6 7 6 7 9 11 13 15 14 16 18 19 18 17 14 12 13 15 16 18 19 20 21 22 22 22 22 22 22 22 22 22 22 22 22 22
4 4 5 6 7 8 7 6 7 6 6 7 7 6 6 5 5 6 6 5 5 4 4 4 4 4 4 3 3 2 1 2 3 3 7 8 7 7 8 9 8 7 7 10 13 15 16 17 18 19 19 18 16 14 14 14 14 16 18 20 21 21 22 22 21 21 21 21 21 22 22 22 22 23
4 5 6 6 6 7 7 7 8 7 7 7 7 8 8 7 7 8 7 7 7 6 6 6 6 6 5 4 3 3 3 3 3 4 7 9 9 9 10 11 10 8 8 10 12 15 16 16 16 17 17 16 16 18 18 15 13 14 16 17 19 21 21 21 20 19 19 20 20 20 20 21 21 22
6 8 8 7 7 8 9 10 10 10 11 11 9 9 11 10 8 8 8 8 9 8 9 9 7 8 9 7 5 5 4 3 4 5 6 8 10 11 12 12 11 8 9 12 12 13 14 13 14 14 13 13 15 17 16 11 9 13 17 17 18 20 21 20 19 17 17 17 17 18 18 19 19 19
5 7 7 7 8 9 9 11 12 11 14 17 15 12 11 10 10 10 10 11 10 9 9 9 8 8 8 6 4 5 4 3 3 5 6 8 10 11 12 13 11 7 8 11 14 15 15 13 14 14 12 12 13 13 11 10 13 17 18 17 17 19 20 20 18 16 16 16 16 16 17 17 18 18
4 4 3 4 5 5 5 8 9 9 12 15 17 17 16 14 13 12 12 11 10 9 8 6 5 6 6 5 5 6 5 3 4 5 7 9 10 11 12 14 13 7 6 11 16 17 15 13 14 15 14 13 12 12 13 17 20 20 17 15 16 17 19 20 19 17 17 17 17 17 17 17 18 18
2 2 1 1 1 2 3 5 6 7 8 9 12 15 18 18 17 16 15 12 8 6 6 5 5 5 5 6 6 6 5 5 6 7 8 9 10 11 12 14 14 11 9 13 17 18 15 13 14 16 14 13 14 15 18 21 22 21 19 18 17 18 19 20 20 19 18 18 18 18 18 19 19 20
1 1 2 2 1 2 2 3 3 5 6 7 8 11 14 17 18 18 17 16 12 7 6 6 6 5 4 4 4 6 6 7 8 9 10 11 11 12 13 14 16 16 15 15 16 17 16 13 14 15 14 14 14 15 17 20 22 23 23 21 19 18 20 21 21 20 19 19 19 19 19 20 21 21
2 2 3 3 3 2 1 1 2 3 4 5 5 5 8 10 11 12 12 12 10 8 6 4 4 5 5 4 5 9 10 8 8 9 11 12 13 15 16 17 19 18 16 13 14 15 15 13 14 16 16 15 14 14 16 19 21 23 23 22 19 18 20 21 20 19 19 19 19 19 19 20 21 22
2 2 3 4 3 1 1 2 2 1 2 2 2 4 6 6 7 9 10 9 7 6 5 3 2 4 7 5 7 10 10 9 9 10 12 14 15 16 17 17 17 16 14 12 12 14 15 13 15 17 16 15 16 15 16 18 21 22 21 21 19 18 18 18 17 18 19 20 20 20 20 21 21 22
1 1 1 1 1 3 3 2 2 1 3 3 4 6 7 7 7 9 10 9 8 7 6 5 5 7 9 9 10 11 11 11 10 11 13 14 14 14 15 14 15 14 12 10 11 15 16 14 15 17 16 16 17 17 16 18 19 19 18 19 18 17 16 16 17 19 20 21 22 22 22 22 21 22
2 3 3 3 4 5 5 5 5 3 3 4 4 5 6 6 6 6 7 7 7 7 8 8 9 9 10 11 12 13 14 14 11 10 12 12 12 13 14 15 15 14 13 12 13 15 16 14 15 17 16 17 18 18 17 15 15 16 17 16 15 15 16 17 19 21 22 24 25 26 25 25 24 25
4 5 6 5 5 4 5 5 5 5 4 3 4 4 5 5 4 4 4 5 6 8 8 9 10 11 12 13 15 14 14 13 10 10 11 12 13 14 15 15 15 15 15 13 10 11 15 15 14 16 17 17 17 16 14 13 13 14 16 15 15 16 18 19 20 23 24 25 25 26 26 26 26 25
6 6 5 4 4 4 4 4 4 5 4 2 3 3 5 5 3 2 2 2 4 6 7 8 9 11 12 13 13 12 13 13 12 11 12 12 13 14 14 15 14 13 12 9 7 11 17 15 14 15 16 15 14 13 13 13 13 14 15 15 16 18 19 21 23 24 24 22 20 19 20 20 21 20
7 6 5 5 5 4 4 5 4 5 5 3 2 1 3 3 2 1 2 4 5 5 7 8 9 9 10 10 10 10 11 12 12 10 11 11 12 14 15 15 15 14 13 12 13 18 20 19 18 19 18 16 15 16 17 17 17 18 18 18 18 19 20 22 22 22 22 21 19 19 20 20 19 18
6 7 7 7 6 5 4 4 3 3 4 2 1 0 1 3 3 2 3 6 8 7 7 8 9 9 9 9 10 9 10 11 10 10 11 13 15 16 17 18 19 19 19 18 18 20 22 23 22 21 20 20 20 21 21 21 21 21 20 20 21 21 21 21 20 20 20 19 19 20 20 19 17 16
4 7 7 7 7 6 4 3 2 1 1 1 2 2 2 3 4 4 3 4 6 7 7 8 9 10 10 10 10 10 10 10 10 11 13 15 17 18 19 20 21 22 23 21 20 21 23 23 22 21 21 21 21 22 22 21 21 21 20 20 21 21 20 20 21 20 19 18 19 19 18 16 16 16
4 7 8 8 7 5 3 2 1 0 1 2 2 2 3 4 5 4 3 5 6 7 8 9 9 10 10 10 9 9 9 9 11 13 16 18 19 19 19 20 21 23 24 23 22 22 23 23 22 22 21 21 21 21 21 21 20 20 20 20 20 20 20 20 20 20 19 19 19 19 18 18 17 18
7 8 8 8 7 5 4 2 1 0 1 2 2 3 5 5 5 3 4 5 6 7 8 8 9 9 8 8 9 10 11 13 15 16 17 17 17 17 18 19 19 21 22 21 20 19 20 21 21 20 20 21 21 20 20 20 20 20 20 20 19 19 18 18 19 20 19 19 18 18 17 17 16 16
9 9 8 7 6 5 3 2 1 1 2 3 4 5 5 4 2 3 4 5 6 7 7 7 8 8 8 8 10 12 14 15 15 15 14 14 15 15 16 17 17 18 18 18 18 17 17 19 20 19 19 20 20 21 20 21 21 20 20 20 20 19 19 19 19 18 18 17 17 16 16 16 16 15
9 8 8 7 6 5 4 4 3 1 3 5 6 7 5 2 1 2 4 4 5 5 6 7 8 8 9 10 12 13 13 13 13 13 13 14 14 14 15 15 16 16 16 16 16 17 17 18 18 19 19 19 19 20 20 20 21 20 20 19 20 19 18 17 17 17 17 17 16 16 17 17 17 16
10 10 9 8 6 4 3 2 1 1 3 4 4 4 3 1 1 2 3 3 4 5 7 8 9 10 11 12 12 11 11 12 12 12 12 13 14 14 15 16 17 16 16 15 15 16 16 17 17 18 19 19 19 19 19 19 21 21 20 19 19 19 18 17 18 18 17 17 17 17 17 18 17 17
12 11 9 7 5 4 2 2 1 0 1 1 1 2 2 2 2 3 4 3 4 6 8 9 10 11 11 11 11 12 12 12 12 12 12 13 14 14 15 16 17 16 16 15 15 15 15 16 17 17 18 19 19 19 19 19 20 20 20 19 18 18 18 18 18 18 17 17 17 17 17 17 17 17
12 10 8 7 6 5 4 3 2 1 1 1 1 1 1 2 2 3 4 5 6 8 8 9 10 11 11 12 12 12 13 13 13 13 13 14 14 15 15 16 16 16 16 16 15 15 14 15 15 16 17 18 19 19 19 20 20 19 19 18 18 18 18 17 17 17 16 16 17 17 17 16 16 16
11 10 9 7 6 5 4 3 2 1 1 1 1 1 1 2 2 3 4 5 7 8 8 9 10 11 12 12 12 12 13 14 13 13 14 14 15 15 16 16 16 16 16 16 16 16 15 15 15 15 16 17 18 19 20 20 21 19 18 18 18 17 17 17 16 16 16 16 16 16 16 16 15 15
10 10 9 7 6 5 4 3 2 1 1 0 1 1 1 1 1 3 5 6 7 8 8 9 10 11 12 12 12 13 14 14 14 14 14 14 15 16 16 17 17 16 16 17 17 16 16 15 15 15 16 16 16 17 18 20 21 20 18 17 17 16 17 16 15 15 15 14 14 15 15 15 15 13
9 9 8 7 6 5 4 3 3 2 1 1 1 1 2 2 2 4 5 6 7 8 9 10 11 11 11 12 13 14 14 14 15 15 14 14 15 16 16 17 17 17 16 16 17 17 16 16 16 15 15 14 12 12 13 15 16 17 17 16 16 15 16 15 15 15 14 14 13 13 13 14 14 14
9 9 8 7 6 5 5 4 4 3 2 1 1 1 2 3 3 5 6 6 7 8 9 10 11 11 12 13 13 14 14 14 14 15 15 16 16 16 16 17 17 17 17 16 16 16 16 16 16 15 14 11 8 8 11 12 11 13 15 16 16 15 15 15 15 15 14 14 14 13 12 13 14 14
9 9 8 7 6 5 5 5 4 3 2 1 1 1 3 3 4 6 7 7 8 9 10 10 10 11 12 13 13 14 14 14 14 15 15 16 15 16 16 17 17 17 17 16 16 16 16 16 16 15 14 11 8 8 9 11 11 11 11 13 14 15 15 14 15 15 14 14 13 13 12 12 12 13
9 9 8 7 7 6 6 5 4 3 2 1 1 2 3 4 4 5 6 7 8 9 10 10 11 11 12 13 13 14 14 14 14 15 15 15 15 16 16 16 17 17 17 17 16 16 15 16 16 16 16 14 13 11 12 13 14 13 13 14 16 17 16 15 14 14 14 13 12 12 11 11 11 11
9 8 8 8 7 7 7 5 4 3 2 0 1 3 4 4 4 5 6 7 9 9 9 10 11 11 12 13 14 14 15 15 15 15 15 15 15 16 16 17 17 17 17 17 17 15 15 14 14 15 16 17 18 17 16 15 15 16 15 15 15 15 15 14 13 14 13 12 11 11 11 10 9 9
9 8 8 8 8 7 6 5 4 2 1 1 2 3 4 3 4 6 6 5 7 9 10 10 11 12 13 14 14 15 15 15 15 15 15 15 16 17 17 17 17 17 17 17 16 16 15 14 14 15 16 17 17 16 13 12 12 13 13 12 11 10 9 9 11 13 13 11 10 10 10 9 8 7
9 9 9 8 7 7 6 4 3 2 1 1 2 3 4 3 4 6 6 5 6 9 11 11 12 13 13 14 14 14 14 15 15 16 16 16 16 17 17 17 16 16 16 16 17 17 16 15 15 14 13 12 11 10 10 10 11 11 11 10 8 6 6 7 10 12 12 12 10 8 7 6 6 6
9 9 9 8 7 6 5 4 3 1 1 2 3 3 4 4 4 6 6 6 7 9 11 12 13 13 14 14 14 14 13 14 15 15 16 16 16 16 17 17 17 17 17 17 17 17 16 15 13 12 11 10 9 10 11 11 11 10 10 8 5 3 4 6 7 6 6 10 11 9 8 6 5 5
9 9 9 8 7 6 5 3 2 2 2 3 3 3 4 5 5 5 5 6 7 8 9 11 13 13 13 14 14 13 13 13 14 15 15 16 16 16 16 17 17 17 16 16 16 16 14 13 11 10 10 10 10 10 11 11 10 9 8 7 5 3 3 4 5 5 3 3 5 7 7 8 8 8
9 9 8 8 7 6 4 3 2 2 3 3 4 4 5 5 5 6 5 6 7 8 8 10 12 13 12 12 13 14 14 15 15 14 15 16 16 15 16 16 17 16 16 15 14 14 13 11 10 9 9 10 10 9 10 9 9 9 7 5 3 3 3 3 3 5 7 8 7 4 2 2 2 1
Wind_Direction
67 64 58 60 58 48 43 43 41 41 38 59 163 212 259 244 176 154 133 110 96 78 69 80 80 77 81 84 83 78 83 90 85 78 81 80 75 71 57 51 55 23 341 318 309 308 310 310 311 311 309 307 305 304 302 300 299 298 297 296 297 296 296 297 296 296 296 290 282 277 276 278 270 256
74 74 71 72 70 60 56 54 51 51 50 53 200 253 275 295 293 181 140 108 93 87 72 70 76 82 83 85 87 81 82 93 91 82 78 67 55 53 36 21 13 346 329 314 307 305 302 303 304 302 303 302 301 301 299 298 297 296 296 296 296 296 296 297 297 298 301 301 294 283 276 275 273 264
73 77 77 78 76 70 66 63 59 59 58 55 68 190 226 265 324 275 153 130 103 102 98 87 81 83 84 85 92 91 79 80 88 89 90 58 23 10 356 346 338 323 317 311 305 304 301 300 300 298 298 297 296 296 295 294 293 292 293 293 293 295 297 299 300 300 302 306 306 297 283 275 273 270
78 79 76 75 73 68 70 72 69 67 62 58 66 90 132 144 151 183 141 127 118 112 115 116 108 98 95 87 88 97 84 71 83 94 96 51 30 4 329 329 335 325 315 310 304 301 299 297 296 295 294 292 292 291 290 290 290 290 290 290 289 291 292 294 297 299 302 304 307 307 297 283 275 272
82 81 84 84 75 62 67 80 87 84 80 77 79 90 112 125 136 146 132 129 129 128 131 135 125 119 125 99 83 92 85 66 72 82 74 53 47 10 303 315 330 337 327 316 310 304 300 297 296 294 293 291 289 288 287 287 286 287 287 287 287 286 286 287 288 290 294 297 300 302 301 294 283 275
103 88 96 101 88 75 73 80 94 97 108 112 101 99 108 118 123 129 136 139 142 143 147 153 141 131 143 132 110 108 93 84 97 107 67 32 21 3 334 304 312 332 338 324 315 310 304 301 299 297 296 295 293 291 290 288 286 285 285 284 284 283 282 281 281 282 284 286 289 291 293 293 288 280
139 139 174 144 133 150 146 208 304 116 224 233 110 107 108 119 122 122 134 146 152 152 155 170 168 145 141 145 130 133 124 103 313 241 265 337 343 339 343 318 299 322 336 333 325 320 313 308 305 303 302 300 299 297 295 293 291 288 286 285 283 282 280 279 278 278 278 278 279 281 283 284 284 282
208 206 223 214 202 215 214 223 238 218 226 231 157 148 141 139 139 136 144 164 178 171 163 170 173 153 154 155 126 139 186 182 284 280 265 291 296 309 324 314 293 311 327 333 328 325 320 312 309 307 305 301 298 297 295 294 292 290 289 287 284 282 280 279 278 277 276 275 275 275 275 276 277 277
238 233 239 238 224 229 233 229 237 245 254 259 226 198 184 169 164 172 189 195 207 198 172 164 170 168 167 157 130 10 326 310 301 309 297 282 281 297 310 301 289 307 321 325 324 327 326 320 317 317 313 309 303 296 292 290 288 287 286 285 283 282 280 280 279 278 277 276 274 273 272 271 272 272
246 242 242 243 237 237 238 234 232 232 242 258 254 242 234 208 187 197 212 209 221 231 199 182 185 185 185 184 178 190 342 333 318 326 329 309 289 298 312 308 292 293 305 310 315 321 320 316 318 321 321 320 312 302 299 296 290 285 283 281 280 280 280 279 279 279 278 277 276 274 272 271 269 268
254 254 249 245 241 242 244 241 240 236 230 239 248 248 252 249 226 222 228 229 236 237 222 220 225 218 214 220 222 217 260 288 289 326 337 326 314 312 313 310 299 286 294 306 312 317 316 316 320 322 323 321 313 309 312 307 295 285 281 280 279 279 280 279 279 279 278 278 277 277 276 274 271 269
232 240 243 245 247 250 248 241 241 244 231 229 237 235 236 244 240 237 241 241 243 243 238 247 257 254 252 246 241 254 265 275 291 323 330 320 314 314 313 309 299 284 295 308 310 316 317 315 317 318 316 311 304 307 316 316 302 290 288 288 285 282 281 280 280 280 279 278 278 278 278 277 276 274
247 251 244 240 240 241 242 244 247 247 237 233 236 231 228 232 237 247 258 254 252 252 252 258 259 256 263 262 259 274 282 291 310 316 313 308 310 311 309 309 301 280 291 307 307 310 311 304 302 304 303 297 293 302 314 315 293 292 298 297 290 284 281 281 281 280 277 277 277 278 279 279 279 279
252 256 244 236 241 247 256 264 266 259 245 240 239 232 223 220 220 232 250 256 256 258 264 268 260 259 277 283 276 281 279 273 294 302 305 306 308 307 304 310 310 285 283 302 304 307 308 300 295 296 294 289 287 292 294 275 268 286 297 297 290 285 281 280 279 276 273 274 275 275 277 278 280 281
222 238 237 234 244 254 267 276 278 272 257 246 240 236 232 231 230 232 242 250 252 253 262 273 267 266 283 282 270 275 276 276 289 301 304 302 304 306 305 310 313 303 296 305 303 303 304 295 289 291 289 285 281 278 273 271 278 291 300 301 294 285 278 276 274 270 268 270 273 274 276 277 278 280
215 236 263 255 216 227 268 285 282 276 270 255 242 237 235 237 238 238 240 245 246 241 246 259 260 257 266 267 267 277 293 306 304 300 300 298 298 300 300 302 303 303 309 308 300 299 301 295 287 285 283 281 281 277 277 284 292 297 303 305 297 283 275 271 268 265 265 267 271 274 277 278 279 280
298 293 298 300 252 253 295 309 285 278 281 271 254 240 232 234 238 238 237 239 239 235 241 255 251 238 248 259 255 262 283 305 308 303 303 303 298 295 294 295 295 296 299 298 293 294 297 296 290 285 283 283 280 278 282 290 294 296 302 305 296 281 273 269 264 261 261 265 270 274 276 278 280 282
287 280 277 282 282 290 322 312 281 285 285 278 263 233 216 219 225 225 222 226 232 231 235 251 245 236 248 250 246 262 278 294 301 300 300 299 297 293 291 289 288 288 286 281 282 288 294 299 297 290 288 287 282 278 280 283 286 291 298 302 296 280 272 271 267 260 258 263 269 271 274 277 280 282
283 279 276 279 293 345 2 298 287 253 237 236 193 167 164 163 176 190 195 200 204 202 205 217 229 245 254 254 258 270 283 292 293 293 291 287 286 286 286 285 282 282 279 269 268 280 290 299 297 291 290 290 286 284 283 284 286 289 292 298 297 284 274 273 267 258 258 264 268 270 272 275 277 280
38 9 340 310 49 80 62 14 9 113 181 177 161 158 155 151 168 192 199 200 204 212 226 243 251 258 264 268 272 278 285 287 288 291 287 280 277 278 282 285 284 284 282 269 265 277 288 295 294 291 291 291 289 288 287 287 288 287 289 295 296 288 279 272 264 261 264 267 270 272 273 274 275 278
93 116 109 96 94 87 71 50 43 71 128 157 165 164 161 156 159 182 200 211 226 242 256 264 266 270 275 279 282 285 286 282 279 280 281 282 283 283 285 287 288 288 286 279 272 275 284 291 291 290 291 290 289 288 287 287 287 287 291 296 296 295 291 282 276 274 274 274 273 273 274 275 277 280
110 125 122 110 105 99 83 69 67 85 113 173 200 188 192 195 171 168 201 236 259 270 277 283 286 290 294 294 292 289 285 283 277 270 274 284 288 284 283 287 290 289 288 285 275 272 281 288 289 291 293 290 286 284 285 288 288 288 294 297 297 299 298 293 289 287 285 284 281 277 276 276 277 280
120 126 128 124 124 119 108 105 111 121 131 177 218 223 237 238 213 169 193 248 277 290 296 297 298 301 301 299 294 285 282 290 294 279 270 277 284 284 285 289 291 289 288 289 285 284 290 293 292 294 296 292 288 288 287 288 288 288 291 292 292 293 294 293 293 292 292 292 288 284 283 281 278 277
129 119 117 126 131 131 137 140 145 156 161 149 133 199 255 243 210 189 275 286 294 296 291 287 285 286 285 279 275 269 270 284 293 281 267 273 282 285 287 287 285 283 284 289 291 289 291 294 293 292 292 290 291 293 290 288 289 290 290 290 290 291 291 291 292 292 293 293 290 288 285 283 280 276
144 125 121 136 142 138 144 147 145 167 182 175 152 192 249 241 251 275 290 298 304 296 282 281 282 280 277 272 269 269 267 270 275 272 270 278 283 283 284 285 285 283 283 287 290 288 287 288 290 290 288 286 287 290 291 290 289 289 289 290 290 290 290 290 290 290 291 291 291 289 286 284 282 277
153 133 136 152 155 154 162 166 164 185 228 271 278 291 291 281 299 318 304 288 295 289 279 283 285 283 282 279 276 277 276 274 274 274 279 285 285 282 280 281 282 282 283 285 288 287 285 285 286 287 286 285 285 288 289 288 288 288 289 288 288 289 290 290 289 289 289 289 289 291 292 292 289 284
158 143 158 172 169 170 183 179 168 208 330 331 324 329 327 324 335 340 300 275 284 287 285 286 284 282 283 284 283 285 287 287 287 286 287 288 286 283 280 279 278 279 282 284 284 283 281 282 282 281 281 282 283 285 285 285 288 291 290 289 289 289 290 290 289 288 288 288 287 290 292 290 287 285
158 157 174 183 176 175 185 184 171 162 358 355 353 346 339 343 349 327 283 281 286 286 283 283 284 287 290 291 293 296 297 295 293 290 289 287 284 283 282 281 279 279 281 283 283 281 279 279 279 277 277 277 278 279 281 284 288 290 291 291 291 290 290 290 289 289 288 288 288 288 287 286 284 286
182 186 187 180 173 171 158 117 97 58 23 7 356 353 360 12 1 305 295 298 295 292 292 292 295 298 297 298 298 297 295 292 291 290 290 289 288 287 286 284 283 282 282 283 282 280 277 275 276 277 276 275 274 275 279 283 286 288 290 291 291 291 291 290 289 289 289 288 288 287 285 285 284 286
193 188 178 167 162 152 126 112 115 58 10 7 7 11 22 36 324 310 321 309 294 300 308 306 304 305 303 302 301 298 294 292 293 295 295 294 292 292 291 290 288 286 285 284 281 278 275 274 274 275 274 273 272 274 277 281 284 285 287 288 289 291 292 291 290 290 289 289 288 287 285 284 283 283
178 175 171 166 164 154 144 151 162 19 15 16 11 6 11 354 287 329 344 323 301 308 314 310 307 307 306 304 302 300 298 296 296 297 295 294 294 295 294 293 291 290 290 288 283 278 275 274 272 271 270 271 271 272 275 278 280 283 284 286 287 289 290 291 291 289 289 289 289 287 285 283 282 280
172 174 167 163 170 173 172 179 178 80 53 39 332 324 315 282 271 301 315 313 311 313 312 309 306 307 307 305 304 302 300 298 298 299 296 294 293 294 294 291 290 292 294 292 289 284 279 275 272 269 268 268 270 273 277 277 277 279 283 285 285 285 286 288 288 289 290 291 289 288 286 285 283 282
166 167 167 172 183 187 188 193 197 199 233 257 279 341 320 290 294 316 314 310 311 313 311 309 308 309 308 306 305 303 299 298 300 300 297 295 294 292 291 289 289 292 295 296 295 292 286 281 276 272 269 268 268 270 273 275 275 277 280 284 285 284 284 285 287 289 291 291 290 291 290 288 287 287
164 169 179 187 191 192 194 198 199 200 233 255 258 300 298 289 310 329 322 316 313 310 308 308 308 308 306 305 305 303 301 300 301 300 297 295 293 291 290 289 291 293 295 296 296 296 293 289 283 278 273 269 267 264 263 264 270 274 277 280 282 283 284 287 288 288 289 290 291 292 294 293 293 293
172 181 185 186 187 191 190 182 179 184 187 223 309 312 298 290 310 321 321 318 314 309 307 307 308 307 306 305 304 303 302 300 299 300 298 295 293 292 292 292 292 295 296 296 295 295 295 292 288 284 280 277 274 270 262 256 259 267 274 278 279 281 284 288 290 290 291 292 292 293 294 294 294 296
183 186 185 183 180 177 173 167 164 159 150 112 15 325 321 329 329 327 327 321 314 310 308 308 309 309 308 306 303 301 300 297 296 296 296 296 296 294 292 290 290 291 294 295 293 293 292 290 287 285 283 280 278 278 273 263 255 257 267 275 278 280 284 288 291 291 291 291 291 292 294 295 297 300
184 179 178 177 172 169 166 160 153 147 137 103 40 349 344 348 341 336 335 327 317 313 311 308 308 308 308 307 304 302 300 298 297 296 296 297 297 295 293 293 293 292 292 292 292 291 289 287 285 281 279 280 278 278 283 282 268 257 260 267 273 277 283 287 289 289 288 287 288 291 294 295 297 300
180 173 173 169 164 163 160 153 147 139 124 86 30 354 350 353 350 344 341 333 323 318 315 310 307 307 308 308 307 307 305 302 302 302 301 300 298 296 296 296 295 294 293 290 289 288 286 283 280 274 271 272 275 280 288 290 283 271 266 267 270 274 280 284 285 288 289 288 287 289 288 290 297 304
175 168 169 165 159 157 154 149 145 138 124 84 13 9 1 352 345 341 340 339 334 325 317 314 311 310 312 312 311 310 308 305 303 302 301 299 297 295 295 294 293 294 293 289 288 288 285 281 277 273 269 265 266 277 289 291 286 281 277 271 266 266 271 277 281 285 288 289 291 291 287 286 299 313
171 163 163 161 157 154 150 147 144 139 126 80 20 9 353 343 343 341 339 343 343 335 326 323 321 318 317 317 315 313 309 306 303 302 300 298 297 295 293 292 292 292 291 290 290 290 287 284 282 281 279 273 271 276 282 282 281 279 277 275 273 268 266 270 278 284 287 290 295 297 294 293 303 315
165 157 156 157 155 150 147 145 143 135 115 38 18 356 334 329 343 344 335 337 343 341 335 331 329 326 323 321 318 315 311 307 306 305 304 302 299 296 295 293 291 290 290 291 292 291 291 290 291 290 287 282 278 277 274 271 276 281 284 290 292 279 261 260 273 278 279 286 295 298 297 299 302 303
161 155 153 155 152 145 140 135 129 119 65 15 3 344 328 319 334 341 337 337 344 345 341 338 336 333 329 326 323 318 313 310 310 310 310 307 302 299 298 296 294 294 293 293 293 293 293 294 294 292 289 284 276 269 267 273 283 291 295 299 294 270 252 267 279 274 266 267 276 285 296 307 311 313
157 154 151 149 143 136 130 123 113 92 36 9 351 337 332 332 338 343 341 340 344 347 347 345 342 335 330 328 325 320 315 314 314 314 312 307 302 299 298 296 295 295 294 293 293 294 294 295 295 291 286 281 272 264 269 281 290 292 296 303 305 289 288 308 317 309 271 255 254 259 271 281 290 313
153 152 148 145 138 129 122 113 94 61 24 2 344 339 343 344 342 341 338 337 340 345 349 348 343 335 330 327 325 322 320 318 315 313 311 307 303 299 297 296 296 296 297 297 298 298 298 300 299 293 286 283 279 273 275 285 292 295 299 307 320 329 329 334 349 6 2 296 266 261 263 267 272 286
151 150 146 141 133 123 115 104 78 49 22 358 350 354 357 352 345 341 338 337 338 342 348 347 339 331 327 323 318 317 319 318 316 316 315 312 308 303 300 299 299 300 302 303 302 302 305 309 309 302 295 291 287 282 281 287 293 297 304 319 340 351 5 24 29 33 38 36 26 8 335 307 297 276